Weather History for Kenai, AK

Change the Weather History Date:

Friday, April 11, 2014

  Actual Average Record
Temperature  
Mean Temperature 26 °F -  
Max Temperature 39 °F 39 °F 55 °F (2003)
Min Temperature 12 °F 24 °F -8 °F (1985)
Degree Days  
Heating Degree Days 40    
Moisture  
Dew Point 14 °F    
Average Humidity 58    
Maximum Humidity 88    
Minimum Humidity 30    
Precipitation  
Precipitation 0.00 in - - ()
Sea Level Pressure  
Sea Level Pressure 30.24 in    
Wind  
Wind Speed 2 mph (North)    
Max Wind Speed 10 mph    
Max Gust Speed -    
Visibility 10 miles    
Events      
Averages and records for this station are not official NWS values.
T = Trace of Precipitation, MM = Missing Value Source: NWS Daily Summary

Daily Weather History Graph

Daily Weather History Graph

Search for Another Location

Airport:

Trip Planner

Search our weather history database for the weather conditions in past years. The results will help you decide how hot, cold, wet, or windy it might be!

Date:

Astronomy

Apr. 11, 2014 Rise Set
Actual Time 6:57 AM AKDT 9:15 PM AKDT
Civil Twilight 6:11 AM AKDT 10:01 PM AKDT
Nautical Twilight 5:11 AM AKDT 11:03 PM AKDT
Astronomical Twilight 3:50 AM AKDT 12:26 AM AKDT
Moon 5:19 PM AKDT (4/11) 5:51 AM AKDT (4/11)
Length of Visible Light 15h 50m
Length of Day
14h 17m
Waxing Gibbous, 88% of the Moon is Illuminated
Apr 11
Waxing Gibbous
Apr 14
Full
Apr 21
Last Quarter
Apr 28
New
May 6
First Quarter

Hourly Weather History & Observations

Time (AKDT) Temp. Windchill Dew Point Humidity Pressure Visibility Wind Dir Wind Speed Gust Speed Precip Events Conditions
12:53 AM 21.9 °F - 12.9 °F 68% 30.13 in 10.0 mi Calm Calm - N/A   Clear
1:53 AM 19.9 °F 14.9 °F 12.9 °F 74% 30.14 in 10.0 mi NE 3.5 mph - N/A   Clear
2:53 AM 16.0 °F - 9.0 °F 74% 30.17 in 10.0 mi Calm Calm - N/A   Clear
3:53 AM 17.1 °F - 10.9 °F 77% 30.18 in 10.0 mi Calm Calm - N/A   Clear
4:53 AM 12.9 °F 6.9 °F 9.0 °F 84% 30.18 in 10.0 mi ENE 3.5 mph - N/A   Clear
5:53 AM 12.9 °F 6.9 °F 9.0 °F 84% 30.19 in 10.0 mi NE 3.5 mph - N/A   Clear
6:53 AM 14.0 °F - 10.9 °F 88% 30.20 in 10.0 mi Calm Calm - N/A   Clear
7:53 AM 14.0 °F 8.2 °F 10.0 °F 84% 30.22 in 10.0 mi North 3.5 mph - N/A   Clear
8:53 AM 21.0 °F - 14.0 °F 74% 30.23 in 10.0 mi Calm Calm - N/A   Clear
9:53 AM 28.0 °F - 16.0 °F 61% 30.25 in 10.0 mi Calm Calm - N/A   Clear
10:53 AM 32.0 °F - 14.0 °F 48% 30.26 in 10.0 mi Calm Calm - N/A   Clear
11:53 AM 35.1 °F - 12.0 °F 39% 30.27 in 10.0 mi Calm Calm - N/A   Clear
12:53 PM 37.0 °F 32.4 °F 10.0 °F 33% 30.27 in 10.0 mi North 5.8 mph - N/A   Clear
1:53 PM 37.9 °F 35.5 °F 9.0 °F 30% 30.27 in 10.0 mi NW 3.5 mph - N/A   Clear
2:53 PM 39.0 °F 33.4 °F 18.0 °F 43% 30.27 in 10.0 mi NW 8.1 mph - N/A   Clear
3:53 PM 39.0 °F 34.8 °F 18.0 °F 43% 30.27 in 10.0 mi NNW 5.8 mph - N/A   Clear
4:53 PM 39.9 °F 34.5 °F 18.0 °F 41% 30.27 in 10.0 mi NNW 8.1 mph - N/A   Clear
5:53 PM 37.9 °F 30.9 °F 16.0 °F 41% 30.26 in 10.0 mi North 10.4 mph - N/A   Clear
6:53 PM 36.0 °F 29.6 °F 14.0 °F 41% 30.26 in 10.0 mi North 8.1 mph - N/A   Clear
7:53 PM 35.1 °F 31.0 °F 16.0 °F 46% 30.27 in 10.0 mi North 4.6 mph - N/A   Clear
8:53 PM 34.0 °F - 15.1 °F 46% 30.27 in 10.0 mi Calm Calm - N/A   Clear
9:53 PM 32.0 °F 28.7 °F 12.9 °F 45% 30.27 in 10.0 mi NNW 3.5 mph - N/A   Clear
10:53 PM 30.0 °F 25.2 °F 18.0 °F 61% 30.28 in 10.0 mi North 4.6 mph - N/A   Clear
11:53 PM 30.0 °F 26.5 °F 19.9 °F 66% 30.27 in 10.0 mi North 3.5 mph - N/A   Overcast